Miscellaneous Local Product
Issued by NWS Hastings, NE

Home | Current Version | Previous Version | Text Only | Print | Product List | Glossary On
Versions: 1 2 3 4 5 6 7 8 9 10 11 12 13 14 15 16 17 18 19 20 21 22 23 24 25 26 27 28 29 30 31 32 33 34 35 36 37 38 39 40 41 42 43 44 45 46 47 48 49 50
000
AXUS43 KGID 041102
MISGRI

GID CWA HOURLY WEATHER ROUNDUP
NATIONAL WEATHER SERVICE HASTINGS NE
500 AM CST WED MAR 04 2015

NOTE: "FAIR" INDICATES FEW OR NO CLOUDS BELOW 12,000 FEET WITH NO
SIGNIFICANT WEATHER AND/OR OBSTRUCTIONS TO VISIBILITY.

...SOUTH CENTRAL NEBRASKA...

CITY           SKY/WX    TMP DP  RH WIND       PRES   REMARKS
GRAND ISLAND   PTCLDY    11   7  84 W8        30.21R WCI  -1
HASTINGS       CLOUDY    15  11  83 NW8       30.18R WCI   4
KEARNEY        MOCLDY    12   7  79 NW5       30.19R WCI   4
ORD            CLEAR     11   1  64 W6        30.17R WCI   1
YORK           CLOUDY    14  10  85 NW9       30.20R WCI   2
AURORA         CLOUDY    13  10  87 W6        30.20R WCI   3
LEXINGTON      PTCLDY    13  10  85 NW3       30.18R
HOLDREGE       CLOUDY    15  11  83 NW5       30.18R WCI   8
HEBRON         MOCLDY    16  13  86 CALM      30.22R

...NEBRASKA PANHANDLE...

CITY           SKY/WX    TMP DP  RH WIND       PRES   REMARKS
CHADRON        PTCLDY     0  -7  72 SW7       30.14S WCI -13
ALLIANCE       PTCLDY     3  -2  79 W9        30.08R WCI -12
SCOTTSBLUFF    MOCLDY     8   4  83 W7        30.11R WCI  -3
SIDNEY         CLOUDY     9   2  73 NW9       30.08R WCI  -4

...WESTERN AND NORTH CENTRAL NEBRASKA...

CITY           SKY/WX    TMP DP  RH WIND       PRES   REMARKS
VALENTINE      CLEAR      6   0  76 W9        30.13R WCI  -8
AINSWORTH      PTCLDY     8   1  71 W6        30.12R WCI  -2
ONEILL         CLEAR      8   2  77 W6        30.16R WCI  -2
BROKEN BOW     PTCLDY    10   6  84 NW5       30.15R WCI   2
IMPERIAL         N/A     15   9  76 NW5       30.14R WCI   8
NORTH PLATTE   PTCLDY     7   4  87 CALM      30.16R
MCCOOK         LGT SNOW  18  13  80 N5        30.18R WCI  11

...EASTERN NEBRASKA...

CITY           SKY/WX    TMP DP  RH WIND       PRES   REMARKS
NORFOLK        PTCLDY    13   5  70 NW6       30.18R WCI   4
SO SIOUX CITY  PTCLDY    12   4  70 NW5       30.21R WCI   4
TEKAMAH        PTCLDY    16   6  65 CALM      30.22R
COLUMBUS       CLEAR     14   0  52 NW6       30.21R WCI   5
ALBION         PTCLDY    11   2  68 NW3       30.18R
OMAHA EPPLEY   PTCLDY    15   7  70 N7        30.22R WCI   5
OFFUTT AFB     PTCLDY    13   9  85 NW2       30.20R
MILLARD        CLEAR     16  10  76 CALM      30.21R
LINCOLN        CLEAR     12   9  87 NE3       30.23R
NEBRASKA CITY  CLOUDY    14  10  81 CALM      30.21R
BEATRICE       MOCLDY    11   9  92 NW5       30.23R WCI   3
FALLS CITY     FLURRIES  18  11  74 N7        30.23R WCI   9

...NORTHERN KANSAS...

CITY           SKY/WX    TMP DP  RH WIND       PRES   REMARKS
GOODLAND       LGT SNOW  16  13  88 N10       30.10R FOG     WCI   4
HILL CITY      LGT SNOW  18  13  80 NE10      30.19R WCI   6
NORTON         PTSUNNY   16  10  79 NW6       30.17S WCI   7
PHILLIPSBURG   CLOUDY    21  18  86 NW5       30.21R WCI  15
SMITH CENTER   CLOUDY    16  12  86 N9        30.21R WCI   4
BELOIT         CLOUDY    19  14  79 N14       30.22R WCI   6
HAYS           MOCLDY    19   7  58 NE16      30.19R WCI   5
RUSSELL        FLURRIES  19  13  77 N13       30.17S WCI   6
CONCORDIA      CLOUDY    19  14  81 N13       30.21R WCI   6
SALINA         CLOUDY    23   5  46 N15       30.21R WCI  10
TOPEKA         CLOUDY    21   6  52 N17G25    30.22R WCI   7



USA.gov is the U.S. government's official web portal to all federal, state and local government web resources and services.